Notices

What's New in latest Release from April 7th, 2021:

- Updated Glossary, including Speed of Maximum Gust, and Total Hourly Precipitation

- Updated national and regional climate services offices contacts and prices information

- Addition of station inventory lists for 1981-2010, 1971-2000, and 1961-1990 Normals.

If you haven't already, please take our survey and provide feedback about our website: https://eccc.sondage-survey.ca/f/LanguageSelection.aspx?s=442ca660-fcf1-47c0-95a9-59707d6fd709

Hourly Data Report for April 27, 2017

KUGAARUK CLIMATE
NUNAVUT

68°32'15.060" N
89°47'47.020" W
15.80 m
2303094
71407
NBB

Download Data

Hourly Data (April 2017)
Hourly Data Report for April 27, 2017
TIME
LST
Temp Definition
°C
Dew Point Definition
°C
Rel Hum Definition
%
Precip. Amount Definition
mm

Wind Dir Definition
10's deg

Wind Spd Definition
km/h
Visibility Definition
km
Stn Press Definition
kPa
Hmdx Definition


Wind Chill Definition


Weather Definition


00:00 -26.3 -29.0 78 0.0 5 5   101.15   -31 LegendNANA
01:00 -26.0 -28.7 78 0.0 0 1   101.19   -27 LegendNANA
02:00 -27.2 -30.1 76 0.0   0   101.22     LegendNANA
03:00 -27.7 -31.2 72 0.0 30 3   101.23   -31 LegendNANA
04:00 -28.2 -31.9 71 0.0 7 4   101.25   -33 LegendNANA
05:00 -26.9 -30.8 69 0.0 0 1   101.27   -28 LegendNANA
06:00 -26.9 -31.0 68 0.0 6 7   101.24   -34 LegendNANA
07:00 -24.6 -31.0 55 0.0 5 2   101.26   -27 LegendNANA
08:00 -21.9 -26.8 64 0.0 5 4   101.28   -26 LegendNANA
09:00 -18.7 -24.9 58 0.0 2 2   101.28   -20 LegendNANA
10:00 -14.5 -18.5 71 0.0 24 18   101.27   -23 LegendNANA
11:00 -13.9 -18.2 70 0.0 24 17   101.29   -22 LegendNANA
12:00 -13.5 -17.8 70 0.0 24 15   101.30   -21 LegendNANA
13:00 -13.3 -18.0 68 0.0 25 14   101.28   -21 LegendNANA
14:00 -13.2 -17.9 68 0.0 25 18   101.27   -21 LegendNANA
15:00 -12.9 -17.2 70 0.0 25 15   101.25   -20 LegendNANA
16:00 -12.9 -16.6 74 0.0 22 12   101.21   -19 LegendNANA
17:00 -13.1 -15.5 82 0.0 23 19   101.20   -22 LegendNANA
18:00 -13.3 -15.5 84 0.3 22 17   101.19   -21 LegendNANA
19:00 -13.6 -15.6 85 0.0 22 14   101.19   -21 LegendNANA
20:00 -14.4 -16.3 85 0.3 23 19   101.17   -23 LegendNANA
21:00 -14.6 -16.5 86 0.2 24 14   101.17   -22 LegendNANA
22:00 -15.5 -17.6 84 0.0 26 11   101.16   -22 LegendNANA
23:00 -15.8 -17.7 85 0.2 26 10   101.17   -22 LegendNANA

Notes on Data Quality.

Legend

  • E = Estimated
  • M = Missing
  • NA = Not Available*
  • [empty] = Indicates an unobserved value
Date modified: